CST,Max TemperatureF,Mean TemperatureF,Min TemperatureF,Max Dew PointF,MeanDew PointF,Min DewpointF,Max Humidity, Mean Humidity, Min Humidity, Max Sea Level PressureIn, Mean Sea Level PressureIn, Min Sea Level PressureIn, Max VisibilityMiles, Mean VisibilityMiles, Min VisibilityMiles, Max Wind SpeedMPH, Mean Wind SpeedMPH, Max Gust SpeedMPH,PrecipitationIn, CloudCover, Events, WindDirDegrees
2013-1-1,66,57,48,63,56,46,100,93,86,30.14,30.01,29.91,10,6,1,15,6,20,1.46,7,Rain,357
2013-1-2,48,44,40,46,40,35,96,86,76,30.27,30.19,30.11,10,10,10,13,5,21,0.04,8,Rain,351
2013-1-3,53,45,36,35,31,27,85,65,44,30.41,30.33,30.25,10,10,10,12,5,17,0.00,0,,13
2013-1-4,57,45,33,34,29,25,82,56,30,30.49,30.40,30.35,10,10,10,10,4,15,0.00,4,,30
2013-1-5,54,49,43,45,37,31,86,66,46,30.38,30.30,30.23,10,10,6,12,6,16,0.04,7,Rain,47
2013-1-6,53,47,41,46,44,39,100,86,71,30.32,30.25,30.20,10,7,2,12,5,18,0.67,6,Rain,18
2013-1-7,60,49,37,42,38,35,100,70,40,30.34,30.26,30.17,10,10,8,16,6,22,0.00,3,,78
2013-1-8,64,56,48,63,55,39,100,80,59,30.20,30.12,30.07,10,6,2,18,10,24,3.27,7,Rain,86
2013-1-9,66,63,60,66,63,60,100,98,94,30.18,30.13,30.08,10,4,1,16,10,23,2.38,8,Rain,102
2013-1-10,68,66,63,67,64,62,100,97,93,30.16,30.06,29.98,10,6,2,25,10,31,2.40,7,Rain-Thunderstorm,142
2013-1-11,71,67,62,70,65,61,100,91,81,30.09,30.04,29.99,10,7,2,15,5,26,0.19,8,Rain,161
2013-1-12,78,73,68,70,68,63,100,80,60,30.04,29.96,29.89,10,9,4,25,12,32,0.00,6,,154
2013-1-13,76,61,46,70,57,45,100,91,82,30.12,29.96,29.80,10,8,1,26,11,36,1.22,7,Rain-Thunderstorm,325
2013-1-14,46,42,37,45,41,36,100,96,92,30.17,30.12,30.07,10,6,1,16,8,23,1.41,8,Rain,19
2013-1-15,44,41,37,43,40,35,100,96,92,30.09,30.05,29.99,10,6,1,13,6,16,0.76,8,Rain,10
2013-1-16,37,36,35,36,34,33,100,93,85,30.19,30.12,30.03,10,8,2,15,7,21,0.06,8,Rain,326
2013-1-17,54,44,34,36,34,29,100,71,41,30.45,30.30,30.19,10,10,7,14,5,22,0.01,2,Rain,302
2013-1-18,59,47,35,36,33,27,92,60,28,30.54,30.46,30.40,10,10,10,14,5,17,0.00,0,,51
2013-1-19,64,49,33,46,40,33,100,75,49,30.40,30.31,30.24,10,10,9,10,3,15,0.00,1,,136
2013-1-20,67,52,36,45,38,32,100,64,28,30.28,30.21,30.14,10,9,7,7,1,10,0.00,0,,310
2013-1-21,68,53,38,45,41,37,100,69,37,30.24,30.19,30.15,10,10,9,12,2,23,0.00,0,,14
2013-1-22,65,54,42,42,39,35,96,68,40,30.36,30.30,30.23,10,10,10,13,3,16,0.00,2,,78
2013-1-23,72,56,39,51,44,38,93,64,34,30.39,30.33,30.29,10,9,5,16,6,20,0.00,0,,207
2013-1-24,74,61,48,56,53,47,96,77,57,30.34,30.27,30.22,10,10,7,15,7,18,0.00,4,,199
2013-1-25,76,66,55,59,56,53,93,72,50,30.25,30.19,30.13,10,10,9,18,9,23,0.00,1,,197
2013-1-26,75,64,52,63,55,52,100,77,53,30.25,30.21,30.16,10,4,0,9,2,14,0.00,2,Fog,130
2013-1-27,76,63,50,59,55,48,100,77,53,30.26,30.21,30.16,10,8,2,16,7,24,0.00,1,,118
2013-1-28,76,66,56,64,61,56,100,82,64,30.24,30.17,30.10,10,8,5,16,8,20,0.00,5,,113
2013-1-29,81,73,64,69,66,64,100,81,62,30.10,29.93,29.75,10,9,5,28,14,36,T,7,Rain,155
2013-1-30,74,58,42,68,46,29,100,69,37,30.20,29.85,29.68,10,8,2,28,12,41,0.85,5,Rain,284
2013-1-31,60,48,35,35,30,21,92,58,23,30.34,30.27,30.21,10,10,10,14,4,17,0.00,0,,240